Weather History for Monroe, MI

Change the Weather History Date:

Wednesday, March 28, 2012

  Actual Average Record
Temperature  
Mean Temperature 62 °F -  
Max Temperature 69 °F 50 °F 80 °F (1945)
Min Temperature 55 °F 33 °F 6 °F (1934)
Degree Days  
Heating Degree Days 3    
Growing Degree Days 12 (Base 50)    
Moisture  
Dew Point 42 °F    
Average Humidity 49    
Maximum Humidity 72    
Minimum Humidity 33    
Precipitation  
Precipitation 0.00 in - - ()
Sea Level Pressure  
Sea Level Pressure 29.74 in    
Wind  
Wind Speed 16 mph (WSW)    
Max Wind Speed 30 mph    
Max Gust Speed 41 mph    
Visibility 10 miles    
Events      
Averages and records for this station are not official NWS values.
T = Trace of Precipitation, MM = Missing Value Source: NWS Daily Summary

Daily Weather History Graph

Daily Weather History Graph

Search for Another Location

Airport:

Trip Planner

Search our weather history database for the weather conditions in past years. The results will help you decide how hot, cold, wet, or windy it might be!

Date:

Astronomy

Mar. 28, 2012 Rise Set
Actual Time 7:22 AM EDT 7:55 PM EDT
Civil Twilight 6:54 AM EDT 8:23 PM EDT
Nautical Twilight 6:21 AM EDT 8:56 PM EDT
Astronomical Twilight 5:47 AM EDT 9:30 PM EDT
Moon 10:33 AM EDT (3/28) 1:01 AM EDT (3/28)
Length of Visible Light 13h 29m
Length of Day
12h 32m
Waxing Crescent, 30% of the Moon is Illuminated
Mar 28
Waxing Crescent
Mar 30
First Quarter
Apr 6
Full
Apr 13
Last Quarter
Apr 21
New

Hourly Weather History & Observations

Time (EDT) Temp. Dew Point Humidity Pressure Visibility Wind Dir Wind Speed Gust Speed Precip Events Conditions
12:13 AM 55.4 °F 28.4 °F 36% 29.85 in 10.0 mi SSW 13.8 mph 19.6 mph N/A   Clear
12:33 AM 55.4 °F 28.4 °F 36% 29.84 in 10.0 mi SSW 12.7 mph 18.4 mph N/A   Clear
12:53 AM 55.4 °F 30.2 °F 38% 29.83 in 10.0 mi SSW 16.1 mph 23.0 mph N/A   Clear
1:13 AM 57.2 °F 30.2 °F 36% 29.82 in 10.0 mi SSW 13.8 mph 23.0 mph N/A   Clear
1:33 AM 55.4 °F 32.0 °F 41% 29.82 in 10.0 mi SW 13.8 mph - N/A   Clear
1:53 AM 57.2 °F 33.8 °F 41% 29.81 in 10.0 mi SW 12.7 mph 17.3 mph N/A   Mostly Cloudy
2:13 AM 57.2 °F 35.6 °F 44% 29.81 in 10.0 mi SW 10.4 mph - N/A   Mostly Cloudy
2:33 AM 57.2 °F 35.6 °F 44% 29.79 in 10.0 mi SW 12.7 mph 21.9 mph N/A   Mostly Cloudy
2:54 AM 57.2 °F 37.4 °F 48% 29.79 in 10.0 mi SW 17.3 mph 24.2 mph N/A   Mostly Cloudy
3:14 AM 57.2 °F 37.4 °F 48% 29.78 in 10.0 mi SW 16.1 mph 23.0 mph N/A   Scattered Clouds
3:34 AM 57.2 °F 39.2 °F 51% 29.76 in 10.0 mi SW 16.1 mph 24.2 mph N/A   Clear
3:54 AM 57.2 °F 39.2 °F 51% 29.75 in 10.0 mi SW 15.0 mph 24.2 mph N/A   Clear
4:14 AM 57.2 °F 39.2 °F 51% 29.74 in 10.0 mi SW 13.8 mph 20.7 mph N/A   Clear
4:34 AM 57.2 °F 41.0 °F 55% 29.73 in 10.0 mi SW 12.7 mph 19.6 mph N/A   Clear
4:54 AM 57.2 °F 42.8 °F 59% 29.73 in 10.0 mi SW 12.7 mph 18.4 mph N/A   Clear
5:14 AM 57.2 °F 42.8 °F 59% 29.72 in 10.0 mi WSW 15.0 mph 19.6 mph N/A   Clear
5:35 AM 57.2 °F 42.8 °F 59% 29.73 in 10.0 mi WSW 13.8 mph 19.6 mph N/A   Clear
5:55 AM 57.2 °F 44.6 °F 63% 29.73 in 10.0 mi WSW 12.7 mph - N/A   Clear
6:15 AM 57.2 °F 44.6 °F 63% 29.72 in 10.0 mi WSW 12.7 mph - N/A   Clear
6:35 AM 57.2 °F 44.6 °F 63% 29.72 in 10.0 mi WSW 12.7 mph 19.6 mph N/A   Clear
6:55 AM 57.2 °F 46.4 °F 67% 29.71 in 10.0 mi WSW 13.8 mph - N/A   Clear
7:10 AM 57.2 °F 46.4 °F 67% 29.71 in 10.0 mi SW 16.1 mph 21.9 mph N/A   Clear
7:30 AM 57.2 °F 46.4 °F 67% 29.71 in 10.0 mi WSW 13.8 mph - N/A   Clear
7:50 AM 57.2 °F 48.2 °F 72% 29.71 in 10.0 mi WSW 15.0 mph 20.7 mph N/A   Clear
8:11 AM 59.0 °F 50.0 °F 72% 29.71 in 10.0 mi WSW 12.7 mph - N/A   Clear
8:31 AM 60.8 °F 50.0 °F 68% 29.71 in 10.0 mi WSW 15.0 mph 20.7 mph N/A   Clear
8:51 AM 60.8 °F 51.8 °F 72% 29.71 in 10.0 mi WSW 17.3 mph 21.9 mph N/A   Clear
9:11 AM 62.6 °F 51.8 °F 68% 29.71 in 10.0 mi WSW 19.6 mph 24.2 mph N/A   Clear
9:31 AM 62.6 °F 51.8 °F 68% 29.71 in 10.0 mi WSW 17.3 mph 21.9 mph N/A   Clear
9:51 AM 64.4 °F 51.8 °F 64% 29.71 in 10.0 mi WSW 18.4 mph 24.2 mph N/A   Clear
10:11 AM 64.4 °F 51.8 °F 64% 29.71 in 10.0 mi West 19.6 mph - N/A   Clear
10:31 AM 66.2 °F 51.8 °F 60% 29.71 in 10.0 mi West 18.4 mph 26.5 mph N/A   Clear
10:52 AM 66.2 °F 46.4 °F 49% 29.71 in 10.0 mi West 23.0 mph 32.2 mph N/A   Clear
11:12 AM 68.0 °F 46.4 °F 46% 29.70 in 10.0 mi West 18.4 mph 29.9 mph N/A   Clear
11:52 AM 68.0 °F 42.8 °F 40% 29.70 in 10.0 mi WSW 25.3 mph 33.4 mph N/A   Clear
12:12 PM 69.8 °F 42.8 °F 38% 29.70 in 10.0 mi WSW 23.0 mph 29.9 mph N/A   Clear
12:32 PM 69.8 °F 42.8 °F 38% 29.69 in 10.0 mi West 23.0 mph 33.4 mph N/A   Clear
12:52 PM 69.8 °F 39.2 °F 33% 29.69 in 10.0 mi West 27.6 mph 34.5 mph N/A   Clear
1:13 PM 69.8 °F 39.2 °F 33% 29.70 in 10.0 mi West 20.7 mph 31.1 mph N/A   Clear
1:33 PM 69.8 °F 39.2 °F 33% 29.70 in 10.0 mi West 29.9 mph 40.3 mph N/A   Clear
1:53 PM 68.0 °F 39.2 °F 35% 29.71 in 10.0 mi West 25.3 mph 36.8 mph N/A   Clear
2:13 PM 68.0 °F 37.4 °F 33% 29.71 in 10.0 mi West 24.2 mph 41.4 mph N/A   Clear
2:33 PM 69.8 °F 39.2 °F 33% 29.71 in 10.0 mi West 26.5 mph 32.2 mph N/A   Scattered Clouds
2:53 PM 69.8 °F 42.8 °F 38% 29.71 in 10.0 mi WNW 24.2 mph 33.4 mph N/A   Scattered Clouds
3:13 PM 68.0 °F 41.0 °F 37% 29.72 in 10.0 mi West 25.3 mph 33.4 mph N/A   Scattered Clouds
3:34 PM 66.2 °F 41.0 °F 40% 29.73 in 10.0 mi WNW 25.3 mph 32.2 mph N/A   Scattered Clouds
3:54 PM 64.4 °F 39.2 °F 40% 29.74 in 10.0 mi WNW 24.2 mph 32.2 mph N/A   Scattered Clouds
4:14 PM 64.4 °F 39.2 °F 40% 29.75 in 10.0 mi WNW 24.2 mph 28.8 mph N/A   Mostly Cloudy
4:35 PM 64.4 °F 39.2 °F 40% 29.77 in 10.0 mi WNW 23.0 mph 31.1 mph N/A   Mostly Cloudy
4:55 PM 62.6 °F 39.2 °F 42% 29.77 in 10.0 mi WNW 21.9 mph 33.4 mph N/A   Scattered Clouds
5:10 PM 62.6 °F 39.2 °F 42% 29.78 in 10.0 mi WNW 20.7 mph 39.1 mph N/A   Scattered Clouds
5:30 PM 60.8 °F 39.2 °F 45% 29.79 in 10.0 mi WNW 20.7 mph 31.1 mph N/A   Scattered Clouds
5:51 PM 60.8 °F 39.2 °F 45% 29.80 in 10.0 mi NW 20.7 mph 31.1 mph N/A   Mostly Cloudy
6:11 PM 59.0 °F 37.4 °F 45% 29.82 in 10.0 mi NW 19.6 mph 25.3 mph N/A   Mostly Cloudy
6:51 PM 55.4 °F 37.4 °F 51% 29.84 in 10.0 mi NW 19.6 mph 28.8 mph N/A   Overcast
7:11 PM 55.4 °F 37.4 °F 51% 29.85 in 10.0 mi NW 18.4 mph 26.5 mph N/A   Overcast
7:31 PM 55.4 °F 37.4 °F 51% 29.86 in 10.0 mi WNW 18.4 mph 27.6 mph N/A   Overcast
7:51 PM 53.6 °F 37.4 °F 54% 29.87 in 10.0 mi WNW 16.1 mph 25.3 mph N/A   Overcast
8:12 PM 53.6 °F 35.6 °F 51% 29.87 in 10.0 mi WNW 17.3 mph 23.0 mph N/A   Overcast
8:32 PM 53.6 °F 37.4 °F 54% 29.88 in 10.0 mi NW 13.8 mph 23.0 mph N/A   Overcast
8:52 PM 53.6 °F 35.6 °F 51% 29.89 in 10.0 mi NW 15.0 mph 21.9 mph N/A   Overcast
9:12 PM 51.8 °F 35.6 °F 54% 29.90 in 10.0 mi NW 15.0 mph 18.4 mph N/A   Overcast
9:32 PM 51.8 °F 35.6 °F 54% 29.91 in 10.0 mi NW 10.4 mph 18.4 mph N/A   Overcast
9:52 PM 51.8 °F 35.6 °F 54% 29.92 in 10.0 mi NW 10.4 mph 16.1 mph N/A   Overcast
10:12 PM 51.8 °F 33.8 °F 50% 29.93 in 10.0 mi NW 13.8 mph 24.2 mph N/A   Overcast
10:33 PM 51.8 °F 33.8 °F 50% 29.93 in 10.0 mi NNW 13.8 mph 18.4 mph N/A   Overcast
10:53 PM 51.8 °F 33.8 °F 50% 29.94 in 10.0 mi NNW 15.0 mph 20.7 mph N/A   Overcast
11:13 PM 50.0 °F 32.0 °F 50% 29.95 in 10.0 mi NNW 12.7 mph 20.7 mph N/A   Overcast
11:33 PM 50.0 °F 33.8 °F 54% 29.95 in 10.0 mi North 9.2 mph - N/A   Overcast
11:53 PM 48.2 °F 33.8 °F 58% 29.96 in 10.0 mi NNW 13.8 mph 17.3 mph N/A   Overcast